Date String (YYYY-MM-DD hh:mm:ss) UTC,Instrument flags,absolute air pressure of the measurement (hPa),sample flow rate (lpm),inlet stack bypass flow (lpm),air temperature of the measurement (°C),ambient temperature measured by the external sensor (°C),aerosol sample conditioner tube jacket temperature (°C),OPC LED temperature (°C),internal box temperature (°C),relative humidity of the measurement (%),span deviation,mass concentration of particles derived from Lorenz-Mie calculation of OPC scattering (μg/m³),mass concentration of particles derived from Lorenz-Mie calculation of OPC scattering (μg/m³),mass concentration of particles derived from Lorenz-Mie calculation of OPC scattering (μg/m³)
DateTimeUTC,F1_M11,P_M11,Q1_M11,Q2_M11,T1_M11,T2_M11,T3_M11,T4_M11,T5_M11,U1_M11,ZSPAN_M11,X0_M11,X2_M11,X1_M11
2024-05-28 18:00:00,SystemResetWarning,0834.7,5.01,000.00,029.5,025.8,000.0,038.5,030.0,017.3,0000.0,0014.81,0003.94,0002.86
2024-05-28 18:01:00,SystemResetWarning,0834.9,5.01,000.00,029.4,026.3,000.0,038.4,030.2,018.0,0000.0,0014.49,0003.93,0002.86
2024-05-28 18:02:00,SystemResetWarning,0834.9,4.99,000.00,029.3,026.7,000.0,038.2,030.4,018.5,0000.0,0013.79,0003.94,0002.88
2024-05-28 18:03:00,SystemResetWarning,0834.9,5.00,000.00,029.3,027.2,000.0,038.1,030.6,018.3,0000.0,0013.58,0003.93,0002.90
2024-05-28 18:04:00,SystemResetWarning,0835.1,5.01,000.00,029.4,027.6,000.0,038.0,030.8,018.1,0000.0,0013.88,0003.87,0002.90
2024-05-28 18:05:00,SystemResetWarning,0835.1,5.00,000.00,029.4,027.9,000.0,038.0,030.9,017.8,0000.0,0013.68,0003.81,0002.91
2024-05-28 18:06:00,SystemResetWarning,0835.0,5.00,000.00,029.4,028.2,000.0,038.0,031.0,017.9,0000.0,0013.06,0003.79,0002.93
2024-05-28 18:07:00,SystemResetWarning,0835.1,5.00,000.00,029.5,028.4,000.0,038.0,031.1,018.1,0000.0,0012.52,0003.83,0002.95
2024-05-28 18:08:00,SystemResetWarning,0835.1,5.01,000.00,029.5,028.6,000.0,038.0,031.2,018.5,0000.0,0012.19,0003.82,0002.98
2024-05-28 18:09:00,SystemResetWarning,0834.9,5.00,000.00,029.6,028.8,000.0,038.0,031.3,018.8,0000.0,0012.77,0003.82,0002.98
2024-05-28 18:10:00,SystemResetWarning,0835.0,5.00,000.00,029.7,028.9,000.0,038.0,031.4,018.7,0000.0,0013.54,0003.86,0002.98
2024-05-28 18:11:00,SystemResetWarning,0834.9,5.00,000.00,029.7,029.0,000.0,038.0,031.4,018.6,0000.0,0014.21,0003.91,0002.98
2024-05-28 18:12:00,SystemResetWarning,0835.0,5.00,000.00,029.8,029.1,000.0,038.0,031.5,018.8,0000.0,0014.92,0003.93,0002.99
2024-05-28 18:13:00,SystemResetWarning,0834.8,5.00,000.00,029.8,029.2,000.0,038.0,031.5,018.2,0000.0,0017.08,0003.94,0003.00
2024-05-28 18:14:00,SystemResetWarning,0835.1,5.00,000.00,029.9,029.3,000.0,038.0,031.6,018.4,0000.0,0017.96,0003.94,0003.01
2024-05-28 18:15:00,SystemResetWarning,0835.1,5.00,000.00,029.9,029.4,000.0,038.1,031.6,018.5,0000.0,0017.84,0003.95,0003.01
2024-05-28 18:16:00,SystemResetWarning,0835.0,5.01,000.00,030.0,029.4,000.0,038.1,031.7,018.9,0000.0,0017.72,0004.01,0003.02
2024-05-28 18:17:00,SystemResetWarning,0834.8,5.00,000.00,030.0,029.5,000.0,038.1,031.8,018.9,0000.0,0018.00,0004.05,0003.02
2024-05-28 18:18:00,SystemResetWarning,0835.1,5.01,000.00,030.0,029.5,000.0,038.2,031.8,018.5,0000.0,0017.59,0004.03,0003.01
2024-05-28 18:19:00,SystemResetWarning,0835.0,5.00,000.00,030.1,029.6,000.0,038.2,031.8,018.8,0000.0,0018.37,0004.03,0003.00
2024-05-28 18:20:00,SystemResetWarning,0835.1,4.99,000.00,030.1,029.7,000.0,038.2,031.9,018.5,0000.0,0018.04,0004.02,0003.00
2024-05-28 18:21:00,SystemResetWarning,0835.0,5.00,000.00,030.2,029.7,000.0,038.3,031.9,018.3,0000.0,0017.40,0003.99,0003.01
2024-05-28 18:22:00,SystemResetWarning,0834.5,4.99,000.00,030.2,029.7,000.0,038.3,031.9,018.6,0000.0,0016.76,0003.94,0003.00
2024-05-28 18:23:00,SystemResetWarning,0834.5,4.99,000.00,030.1,028.1,000.0,038.4,031.2,018.7,0000.0,0016.75,0003.97,0003.00
2024-05-28 18:24:00,SystemResetWarning,0834.4,5.01,000.00,029.6,025.9,000.0,038.4,030.1,019.0,0000.0,0016.10,0004.00,0003.01
2024-05-28 18:25:00,SystemResetWarning,0834.4,5.02,000.00,029.3,025.9,000.0,038.3,030.0,019.3,0000.0,0015.93,0004.01,0003.00
2024-05-28 18:26:00,SystemResetWarning,0834.4,4.99,000.00,029.3,026.4,000.0,038.2,030.2,019.3,0000.0,0015.78,0004.04,0003.02
2024-05-28 18:27:00,SystemResetWarning,0834.4,4.99,000.00,029.3,026.9,000.0,038.0,030.4,019.4,0000.0,0016.38,0004.10,0003.03
2024-05-28 18:28:00,SystemResetWarning,0834.4,5.00,000.00,029.3,027.3,000.0,037.9,030.6,019.7,0000.0,0016.65,0004.09,0003.03
2024-05-28 18:29:00,SystemResetWarning,0834.5,5.00,000.00,029.3,027.7,000.0,037.9,030.8,019.2,0000.0,0017.20,0004.07,0003.05
2024-05-28 18:30:00,SystemResetWarning,0834.5,5.00,000.00,029.3,028.0,000.0,037.9,030.9,019.3,0000.0,0016.49,0004.06,0003.06
2024-05-28 18:31:00,SystemResetWarning,0834.5,4.98,000.00,029.4,028.2,000.0,037.9,031.0,019.1,0000.0,0016.10,0004.14,0003.06
2024-05-28 18:32:00,SystemResetWarning,0834.5,4.99,000.00,029.5,028.5,000.0,037.9,031.1,019.1,0000.0,0015.60,0004.17,0003.06
2024-05-28 18:33:00,SystemResetWarning,0834.5,5.01,000.00,029.5,028.6,000.0,037.9,031.2,018.4,0000.0,0015.50,0004.20,0003.06
2024-05-28 18:34:00,SystemResetWarning,0834.5,5.02,000.00,029.6,028.8,000.0,037.8,031.3,018.6,0000.0,0015.83,0004.18,0003.07
2024-05-28 18:35:00,SystemResetWarning,0834.5,4.99,000.00,029.6,028.9,000.0,037.9,031.3,019.2,0000.0,0014.28,0004.17,0003.07
2024-05-28 18:36:00,SystemResetWarning,0834.5,4.99,000.00,029.7,029.0,000.0,037.9,031.4,019.4,0000.0,0013.46,0004.12,0003.05
2024-05-28 18:37:00,SystemResetWarning,0834.5,4.99,000.00,029.7,029.1,000.0,037.9,031.5,018.5,0000.0,0013.90,0004.13,0003.05
2024-05-28 18:38:00,SystemResetWarning,0834.5,5.00,000.00,029.8,029.2,000.0,037.9,031.5,018.4,0000.0,0013.65,0004.07,0003.05
2024-05-28 18:39:00,SystemResetWarning,0834.5,5.00,000.00,029.8,029.3,000.0,038.0,031.6,018.7,0000.0,0012.92,0004.05,0003.04
2024-05-28 18:40:00,SystemResetWarning,0834.4,4.99,000.00,029.9,029.4,000.0,038.0,031.6,018.3,0000.0,0012.07,0004.06,0003.02
2024-05-28 18:41:00,SystemResetWarning,0834.4,5.00,000.00,029.9,029.5,000.0,038.0,031.7,018.8,0000.0,0011.92,0004.03,0003.01
2024-05-28 18:42:00,SystemResetWarning,0834.4,5.01,000.00,030.0,029.5,000.0,038.1,031.8,018.8,0000.0,0011.58,0003.95,0002.99
2024-05-28 18:43:00,SystemResetWarning,0834.4,5.00,000.00,030.1,029.6,000.0,038.1,031.8,019.2,0000.0,0011.99,0003.91,0002.97
2024-05-28 18:44:00,SystemResetWarning,0834.3,5.01,000.00,030.1,029.7,000.0,038.2,031.9,018.4,0000.0,0012.74,0003.90,0002.95
2024-05-28 18:45:00,SystemResetWarning,0834.3,4.98,000.00,030.1,029.0,000.0,038.2,031.5,018.1,0000.0,0012.19,0003.85,0002.92
2024-05-28 18:46:00,SystemResetWarning,0834.5,5.00,000.00,029.8,026.9,000.0,038.3,030.6,019.3,0000.0,0013.33,0003.85,0002.91
2024-05-28 18:47:00,SystemResetWarning,0834.4,5.01,000.00,029.6,027.0,000.0,038.3,030.6,019.6,0000.0,0014.03,0003.86,0002.93
2024-05-28 18:48:00,SystemResetWarning,0834.4,4.99,000.00,029.5,027.3,000.0,038.1,030.7,019.9,0000.0,0015.38,0003.82,0002.92
2024-05-28 18:49:00,SystemResetWarning,0834.5,4.99,000.00,029.5,027.7,000.0,038.1,030.9,019.0,0000.0,0015.80,0003.86,0002.91
2024-05-28 18:50:00,SystemResetWarning,0834.6,5.00,000.00,029.6,028.0,000.0,038.0,031.0,019.5,0000.0,0016.20,0003.90,0002.90
2024-05-28 18:51:00,SystemResetWarning,0834.4,5.01,000.00,029.6,028.3,000.0,038.0,031.2,018.9,0000.0,0017.30,0003.91,0002.90
2024-05-28 18:52:00,SystemResetWarning,0834.4,5.01,000.00,029.6,028.5,000.0,038.0,031.3,018.0,0000.0,0017.59,0003.90,0002.90
2024-05-28 18:53:00,SystemResetWarning,0834.3,4.99,000.00,029.7,028.7,000.0,038.0,031.3,018.2,0000.0,0018.20,0003.90,0002.89
2024-05-28 18:54:00,SystemResetWarning,0834.4,5.00,000.00,029.7,028.9,000.0,038.0,031.4,018.3,0000.0,0018.40,0003.89,0002.90
2024-05-28 18:55:00,SystemResetWarning,0834.3,5.00,000.00,029.8,029.0,000.0,038.0,031.5,018.5,0000.0,0017.53,0003.89,0002.92
2024-05-28 18:56:00,SystemResetWarning,0834.4,5.01,000.00,029.8,029.1,000.0,038.0,031.5,018.9,0000.0,0017.45,0003.91,0002.94
2024-05-28 18:57:00,SystemResetWarning,0834.3,5.01,000.00,029.9,029.2,000.0,038.0,031.6,019.0,0000.0,0017.29,0003.92,0002.95
2024-05-28 18:58:00,SystemResetWarning,0834.4,5.00,000.00,029.9,029.3,000.0,038.1,031.7,018.9,0000.0,0016.79,0003.90,0002.92
2024-05-28 18:59:00,SystemResetWarning,0834.4,4.99,000.00,030.0,029.4,000.0,038.1,031.7,019.0,0000.0,0015.65,0003.93,0002.92
